| time (UTC) | temp F | wind direction | speed MPH | gust MPH | rain 1hr in | rain 24hr in | rain mn in | humidity % | barometer mb |
| 20260904201107 | 73 | 180 | 20.0 | 0.0 | 0.00 | 0.00 | 0.00 | 26 | 1003.4 |
| 20260904200514 | 72 | 181 | 19.0 | 0.0 | 0.00 | 0.00 | 0.00 | 27 | 1003.4 |
| 20260904200023 | 73 | 135 | 19.0 | 0.0 | 0.00 | 0.00 | 0.00 | 26 | 1003.6 |
| 20260904195526 | 73 | 162 | 19.0 | 0.0 | 0.00 | 0.00 | 0.00 | 27 | 1003.4 |
| 20260904195035 | 72 | 184 | 20.0 | 0.0 | 0.00 | 0.00 | 0.00 | 27 | 1003.4 |
| 20260904194605 | 72 | 189 | 18.0 | 0.0 | 0.00 | 0.00 | 0.00 | 27 | 1003.5 |
| 20260904194058 | 72 | 169 | 17.0 | 0.0 | 0.00 | 0.00 | 0.00 | 27 | 1003.5 |
| 20260904193600 | 72 | 128 | 17.0 | 0.0 | 0.00 | 0.00 | 0.00 | 28 | 1003.4 |
| 20260904193004 | 71 | 159 | 19.0 | 0.0 | 0.00 | 0.00 | 0.00 | 28 | 1003.7 |
| 20260904192520 | 72 | 142 | 20.0 | 0.0 | 0.00 | 0.00 | 0.00 | 28 | 1003.7 |
| 20260904192030 | 72 | 151 | 22.0 | 0.0 | 0.00 | 0.00 | 0.00 | 27 | 1003.6 |
| 20260904191540 | 72 | 158 | 21.0 | 0.0 | 0.00 | 0.00 | 0.00 | 27 | 1003.6 |
| 20260904191041 | 72 | 181 | 20.0 | 0.0 | 0.00 | 0.00 | 0.00 | 26 | 1003.6 |
| 20260904190544 | 71 | 166 | 21.0 | 0.0 | 0.00 | 0.00 | 0.00 | 26 | 1003.6 |
| 20260904190050 | 72 | 168 | 21.0 | 0.0 | 0.00 | 0.00 | 0.00 | 26 | 1003.5 |
| 20260904185553 | 72 | 177 | 21.0 | 0.0 | 0.00 | 0.00 | 0.00 | 26 | 1003.5 |
| 20260904185054 | 72 | 171 | 21.0 | 0.0 | 0.00 | 0.00 | 0.00 | 26 | 1003.4 |
| 20260904184602 | 71 | 150 | 20.0 | 0.0 | 0.00 | 0.00 | 0.00 | 25 | 1003.3 |
| 20260904184018 | 71 | 180 | 21.0 | 0.0 | 0.00 | 0.00 | 0.00 | 26 | 1003.3 |
| 20260904183527 | 71 | 175 | 21.0 | 0.0 | 0.00 | 0.00 | 0.00 | 25 | 1003.4 |
| 20260904183028 | 71 | 213 | 20.0 | 0.0 | 0.00 | 0.00 | 0.00 | 25 | 1003.3 |
| 20260904182538 | 71 | 171 | 21.0 | 0.0 | 0.00 | 0.00 | 0.00 | 25 | 1003.3 |
| 20260904182050 | 71 | 194 | 21.0 | 0.0 | 0.00 | 0.00 | 0.00 | 25 | 1003.3 |
| 20260904181605 | 71 | 143 | 21.0 | 0.0 | 0.00 | 0.00 | 0.00 | 25 | 1003.3 |
| 20260904181103 | 71 | 148 | 22.0 | 0.0 | 0.00 | 0.00 | 0.00 | 25 | 1003.4 |
| 20260904180603 | 71 | 121 | 22.0 | 0.0 | 0.00 | 0.00 | 0.00 | 25 | 1003.2 |
| 20260904180008 | 71 | 180 | 21.0 | 0.0 | 0.00 | 0.00 | 0.00 | 25 | 1003.2 |
| 20260904175515 | 71 | 168 | 21.0 | 0.0 | 0.00 | 0.00 | 0.00 | 25 | 1003.2 |
| 20260904175016 | 71 | 173 | 20.0 | 0.0 | 0.00 | 0.00 | 0.00 | 26 | 1003.1 |
| 20260904174518 | 71 | 149 | 20.0 | 0.0 | 0.00 | 0.00 | 0.00 | 25 | 1003.2 |
| 20260904174030 | 71 | 182 | 19.0 | 0.0 | 0.00 | 0.00 | 0.00 | 26 | 1003.2 |
| 20260904173542 | 71 | 152 | 19.0 | 0.0 | 0.00 | 0.00 | 0.00 | 26 | 1003.2 |
| 20260904173042 | 71 | 173 | 17.0 | 0.0 | 0.00 | 0.00 | 0.00 | 27 | 1003.2 |
| 20260904172552 | 71 | 180 | 16.0 | 0.0 | 0.00 | 0.00 | 0.00 | 27 | 1003.3 |
| 20260904172055 | 71 | 184 | 15.0 | 0.0 | 0.00 | 0.00 | 0.00 | 27 | 1003.5 |
| 20260904171604 | 70 | 176 | 16.0 | 0.0 | 0.00 | 0.00 | 0.00 | 28 | 1003.4 |
| 20260904171100 | 70 | 173 | 16.0 | 0.0 | 0.00 | 0.00 | 0.00 | 27 | 1003.6 |
| 20260904170501 | 70 | 130 | 16.0 | 0.0 | 0.00 | 0.00 | 0.00 | 28 | 1003.6 |
| 20260904170004 | 70 | 190 | 17.0 | 0.0 | 0.00 | 0.00 | 0.00 | 28 | 1003.4 |
| 20260904165610 | 70 | 190 | 17.0 | 0.0 | 0.00 | 0.00 | 0.00 | 27 | 1003.5 |
| 20260904165101 | 70 | 173 | 17.0 | 0.0 | 0.00 | 0.00 | 0.00 | 27 | 1003.5 |
| 20260904164503 | 70 | 138 | 16.0 | 0.0 | 0.00 | 0.00 | 0.00 | 28 | 1003.6 |
| 20260904164023 | 69 | 146 | 17.0 | 0.0 | 0.00 | 0.00 | 0.00 | 28 | 1003.4 |
| 20260904163546 | 69 | 184 | 16.0 | 0.0 | 0.00 | 0.00 | 0.00 | 28 | 1003.2 |
| 20260904163057 | 68 | 125 | 16.0 | 0.0 | 0.00 | 0.00 | 0.00 | 29 | 1003.4 |
| 20260904162511 | 68 | 180 | 16.0 | 0.0 | 0.00 | 0.00 | 0.00 | 29 | 1003.4 |
| 20260904162020 | 68 | 140 | 16.0 | 0.0 | 0.00 | 0.00 | 0.00 | 30 | 1003.3 |
| 20260904161534 | 67 | 147 | 16.0 | 0.0 | 0.00 | 0.00 | 0.00 | 30 | 1003.3 |
| 20260904161043 | 68 | 148 | 16.0 | 0.0 | 0.00 | 0.00 | 0.00 | 29 | 1003.3 |
| 20260904160553 | 67 | 195 | 16.0 | 0.0 | 0.00 | 0.00 | 0.00 | 30 | 1003.2 |
| 20260904160057 | 67 | 128 | 15.0 | 0.0 | 0.00 | 0.00 | 0.00 | 30 | 1003.4 |
| 20260904155518 | 67 | 122 | 15.0 | 0.0 | 0.00 | 0.00 | 0.00 | 30 | 1003.3 |
| 20260904155030 | 67 | 141 | 16.0 | 0.0 | 0.00 | 0.00 | 0.00 | 30 | 1003.1 |
| 20260904154547 | 67 | 119 | 19.0 | 0.0 | 0.00 | 0.00 | 0.00 | 29 | 1003.2 |
| 20260904154059 | 67 | 161 | 19.0 | 0.0 | 0.00 | 0.00 | 0.00 | 30 | 1003.0 |
| 20260904153518 | 66 | 128 | 19.0 | 0.0 | 0.00 | 0.00 | 0.00 | 30 | 1003.0 |
| 20260904153035 | 66 | 132 | 20.0 | 0.0 | 0.00 | 0.00 | 0.00 | 29 | 1002.9 |
| 20260904152542 | 66 | 133 | 20.0 | 0.0 | 0.00 | 0.00 | 0.00 | 30 | 1002.6 |
| 20260904152054 | 66 | 123 | 19.0 | 0.0 | 0.00 | 0.00 | 0.00 | 30 | 1002.7 |
| 20260904151605 | 66 | 124 | 20.0 | 0.0 | 0.00 | 0.00 | 0.00 | 30 | 1002.7 |
| 20260904151023 | 66 | 150 | 20.0 | 0.0 | 0.00 | 0.00 | 0.00 | 29 | 1002.6 |
| 20260904150544 | 66 | 154 | 20.0 | 0.0 | 0.00 | 0.00 | 0.00 | 29 | 1002.7 |
| 20260904150052 | 66 | 123 | 20.0 | 0.0 | 0.00 | 0.00 | 0.00 | 29 | 1002.7 |
| 20260904145509 | 66 | 148 | 20.0 | 0.0 | 0.00 | 0.00 | 0.00 | 29 | 1002.7 |
| 20260904145029 | 66 | 119 | 19.0 | 0.0 | 0.00 | 0.00 | 0.00 | 29 | 1002.5 |
| 20260904144544 | 65 | 136 | 20.0 | 0.0 | 0.00 | 0.00 | 0.00 | 28 | 1002.5 |
| 20260904144013 | 65 | 179 | 20.0 | 0.0 | 0.00 | 0.00 | 0.00 | 28 | 1002.5 |
| 20260904143521 | 65 | 172 | 19.0 | 0.0 | 0.00 | 0.00 | 0.00 | 28 | 1002.5 |
| 20260904143037 | 65 | 146 | 18.0 | 0.0 | 0.00 | 0.00 | 0.00 | 28 | 1002.4 |
| 20260904142540 | 65 | 146 | 18.0 | 0.0 | 0.00 | 0.00 | 0.00 | 28 | 1002.5 |
| 20260904142049 | 65 | 135 | 16.0 | 0.0 | 0.00 | 0.00 | 0.00 | 27 | 1002.4 |
| 20260904141508 | 65 | 149 | 14.0 | 0.0 | 0.00 | 0.00 | 0.00 | 27 | 1002.3 |
| 20260904141021 | 65 | 167 | 15.0 | 0.0 | 0.00 | 0.00 | 0.00 | 27 | 1002.3 |
| 20260904140543 | 65 | 142 | 16.0 | 0.0 | 0.00 | 0.00 | 0.00 | 27 | 1002.3 |
| 20260904140053 | 65 | 157 | 16.0 | 0.0 | 0.00 | 0.00 | 0.00 | 27 | 1002.1 |
| 20260904135607 | 65 | 146 | 16.0 | 0.0 | 0.00 | 0.00 | 0.00 | 27 | 1002.3 |
| 20260904135008 | 64 | 153 | 17.0 | 0.0 | 0.00 | 0.00 | 0.00 | 27 | 1002.3 |
| 20260904134513 | 64 | 157 | 18.0 | 0.0 | 0.00 | 0.00 | 0.00 | 27 | 1002.1 |
| 20260904134023 | 64 | 146 | 17.0 | 0.0 | 0.00 | 0.00 | 0.00 | 27 | 1002.0 |
| 20260904133531 | 64 | 144 | 17.0 | 0.0 | 0.00 | 0.00 | 0.00 | 27 | 1001.9 |
| 20260904133041 | 64 | 165 | 17.0 | 0.0 | 0.00 | 0.00 | 0.00 | 27 | 1001.9 |
| 20260904132552 | 64 | 140 | 16.0 | 0.0 | 0.00 | 0.00 | 0.00 | 27 | 1002.0 |
| 20260904132006 | 64 | 142 | 16.0 | 0.0 | 0.00 | 0.00 | 0.00 | 26 | 1001.8 |
| 20260904131523 | 64 | 153 | 17.0 | 0.0 | 0.00 | 0.00 | 0.00 | 26 | 1001.7 |
| 20260904131039 | 64 | 163 | 16.0 | 0.0 | 0.00 | 0.00 | 0.00 | 27 | 1001.5 |
| 20260904130547 | 64 | 163 | 16.0 | 0.0 | 0.00 | 0.00 | 0.00 | 27 | 1001.3 |
| 20260904130103 | 64 | 122 | 16.0 | 0.0 | 0.00 | 0.00 | 0.00 | 27 | 1001.3 |
| 20260904125508 | 64 | 131 | 16.0 | 0.0 | 0.00 | 0.00 | 0.00 | 27 | 1001.2 |
| 20260904125022 | 64 | 133 | 16.0 | 0.0 | 0.00 | 0.00 | 0.00 | 27 | 1001.1 |
| 20260904124540 | 64 | 146 | 15.0 | 0.0 | 0.00 | 0.00 | 0.00 | 27 | 1001.2 |
| 20260904124058 | 64 | 149 | 15.0 | 0.0 | 0.00 | 0.00 | 0.00 | 27 | 1000.9 |
| 20260904123601 | 64 | 132 | 13.0 | 0.0 | 0.00 | 0.00 | 0.00 | 27 | 1001.0 |
| 20260904123030 | 64 | 150 | 13.0 | 0.0 | 0.00 | 0.00 | 0.00 | 28 | 1001.0 |
| 20260904122534 | 64 | 150 | 13.0 | 0.0 | 0.00 | 0.00 | 0.00 | 28 | 1000.8 |
| 20260904122040 | 63 | 146 | 12.0 | 0.0 | 0.00 | 0.00 | 0.00 | 29 | 1000.8 |
| 20260904121558 | 63 | 164 | 11.0 | 0.0 | 0.00 | 0.00 | 0.00 | 29 | 1000.9 |
| 20260904121003 | 62 | 163 | 10.0 | 0.0 | 0.00 | 0.00 | 0.00 | 30 | 1000.6 |
| 20260904120518 | 61 | 167 | 10.0 | 0.0 | 0.00 | 0.00 | 0.00 | 32 | 1000.5 |
| 20260904120045 | 60 | 153 | 10.0 | 0.0 | 0.00 | 0.00 | 0.00 | 33 | 1000.5 |
| 20260904115539 | 58 | 143 | 9.0 | 0.0 | 0.00 | 0.00 | 0.00 | 35 | 1000.2 |
| 20260904115055 | 56 | 173 | 8.0 | 0.0 | 0.00 | 0.00 | 0.00 | 37 | 1000.2 |
| 20260904114505 | 56 | 169 | 9.0 | 0.0 | 0.00 | 0.00 | 0.00 | 39 | 1000.2 |
| 20260904114028 | 56 | 149 | 10.0 | 0.0 | 0.00 | 0.00 | 0.00 | 39 | 1000.1 |
| 20260904113549 | 56 | 161 | 10.0 | 0.0 | 0.00 | 0.00 | 0.00 | 40 | 1000.2 |
| 20260904113059 | 55 | 189 | 9.0 | 0.0 | 0.00 | 0.00 | 0.00 | 41 | 1000.1 |
| 20260904112522 | 55 | 164 | 9.0 | 0.0 | 0.00 | 0.00 | 0.00 | 40 | 999.9 |
| 20260904112033 | 56 | 185 | 9.0 | 0.0 | 0.00 | 0.00 | 0.00 | 40 | 1000.0 |
| 20260904111555 | 55 | 184 | 8.0 | 0.0 | 0.00 | 0.00 | 0.00 | 40 | 1000.0 |
| 20260904111055 | 55 | 175 | 7.0 | 0.0 | 0.00 | 0.00 | 0.00 | 40 | 1000.0 |
| 20260904110511 | 56 | 178 | 6.0 | 0.0 | 0.00 | 0.00 | 0.00 | 39 | 1000.0 |
| 20260904110028 | 57 | 180 | 7.0 | 0.0 | 0.00 | 0.00 | 0.00 | 37 | 1000.1 |
| 20260904105541 | 57 | 148 | 8.0 | 0.0 | 0.00 | 0.00 | 0.00 | 37 | 1000.2 |
| 20260904105105 | 58 | 165 | 7.0 | 0.0 | 0.00 | 0.00 | 0.00 | 36 | 1000.2 |
| 20260904104535 | 58 | 178 | 7.0 | 0.0 | 0.00 | 0.00 | 0.00 | 36 | 1000.2 |
| 20260904104037 | 58 | 164 | 7.0 | 0.0 | 0.00 | 0.00 | 0.00 | 35 | 1000.2 |
| 20260904103546 | 58 | 162 | 8.0 | 0.0 | 0.00 | 0.00 | 0.00 | 35 | 1000.1 |
| 20260904103057 | 58 | 173 | 8.0 | 0.0 | 0.00 | 0.00 | 0.00 | 35 | 1000.1 |
| 20260904102511 | 57 | 158 | 8.0 | 0.0 | 0.00 | 0.00 | 0.00 | 36 | 1000.2 |
| 20260904102037 | 57 | 169 | 8.0 | 0.0 | 0.00 | 0.00 | 0.00 | 35 | 1000.0 |
| 20260904101550 | 57 | 166 | 8.0 | 0.0 | 0.00 | 0.00 | 0.00 | 35 | 1000.0 |
| 20260904101101 | 57 | 169 | 8.0 | 0.0 | 0.00 | 0.00 | 0.00 | 36 | 1000.0 |
| 20260904100521 | 56 | 165 | 9.0 | 0.0 | 0.00 | 0.00 | 0.00 | 36 | 999.8 |
| 20260904100039 | 56 | 167 | 8.0 | 0.0 | 0.00 | 0.00 | 0.00 | 37 | 999.8 |
| 20260904095547 | 55 | 171 | 7.0 | 0.0 | 0.00 | 0.00 | 0.00 | 37 | 999.8 |
| 20260904095013 | 55 | 177 | 8.0 | 0.0 | 0.00 | 0.00 | 0.00 | 38 | 999.9 |
| 20260904094529 | 55 | 190 | 8.0 | 0.0 | 0.00 | 0.00 | 0.00 | 38 | 999.8 |
| 20260904094035 | 55 | 173 | 8.0 | 0.0 | 0.00 | 0.00 | 0.00 | 38 | 999.9 |
| 20260904093547 | 56 | 187 | 9.0 | 0.0 | 0.00 | 0.00 | 0.00 | 37 | 999.9 |
| 20260904093004 | 57 | 183 | 11.0 | 0.0 | 0.00 | 0.00 | 0.00 | 36 | 999.8 |
| 20260904092525 | 57 | 178 | 12.0 | 0.0 | 0.00 | 0.00 | 0.00 | 36 | 999.8 |
| 20260904092042 | 57 | 184 | 13.0 | 0.0 | 0.00 | 0.00 | 0.00 | 36 | 999.8 |
| 20260904091555 | 57 | 176 | 14.0 | 0.0 | 0.00 | 0.00 | 0.00 | 36 | 999.8 |
| 20260904091017 | 58 | 175 | 14.0 | 0.0 | 0.00 | 0.00 | 0.00 | 35 | 999.6 |
| 20260904090528 | 58 | 186 | 14.0 | 0.0 | 0.00 | 0.00 | 0.00 | 35 | 999.5 |
| 20260904090038 | 58 | 195 | 15.0 | 0.0 | 0.00 | 0.00 | 0.00 | 34 | 999.4 |
| 20260904085552 | 58 | 167 | 16.0 | 0.0 | 0.00 | 0.00 | 0.00 | 33 | 999.4 |
| 20260904085047 | 58 | 174 | 16.0 | 0.0 | 0.00 | 0.00 | 0.00 | 34 | 999.3 |
| 20260904084549 | 58 | 190 | 15.0 | 0.0 | 0.00 | 0.00 | 0.00 | 34 | 999.4 |
| 20260904084048 | 58 | 187 | 14.0 | 0.0 | 0.00 | 0.00 | 0.00 | 34 | 999.3 |
| 20260904083554 | 58 | 184 | 12.0 | 0.0 | 0.00 | 0.00 | 0.00 | 35 | 999.5 |
| 20260904083055 | 57 | 194 | 9.0 | 0.0 | 0.00 | 0.00 | 0.00 | 36 | 999.6 |
| 20260904082556 | 56 | 186 | 8.0 | 0.0 | 0.00 | 0.00 | 0.00 | 37 | 999.6 |
| 20260904082057 | 56 | 194 | 10.0 | 0.0 | 0.00 | 0.00 | 0.00 | 38 | 999.7 |
| 20260904081558 | 56 | 178 | 10.0 | 0.0 | 0.00 | 0.00 | 0.00 | 39 | 999.8 |
| 20260904081000 | 57 | 190 | 10.0 | 0.0 | 0.00 | 0.00 | 0.00 | 38 | 999.9 |
| 20260904080509 | 58 | 195 | 10.0 | 0.0 | 0.00 | 0.00 | 0.00 | 36 | 999.8 |
| 20260904080032 | 58 | 189 | 11.0 | 0.0 | 0.00 | 0.00 | 0.00 | 36 | 999.9 |
| 20260904075524 | 58 | 196 | 12.0 | 0.0 | 0.00 | 0.00 | 0.00 | 36 | 999.8 |
| 20260904075025 | 58 | 194 | 14.0 | 0.0 | 0.00 | 0.00 | 0.00 | 36 | 999.9 |
| 20260904074539 | 58 | 167 | 16.0 | 0.0 | 0.00 | 0.00 | 0.00 | 36 | 999.8 |
| 20260904074046 | 58 | 155 | 15.0 | 0.0 | 0.00 | 0.00 | 0.00 | 36 | 999.8 |
| 20260904073547 | 58 | 168 | 14.0 | 0.0 | 0.00 | 0.00 | 0.00 | 36 | 999.8 |
| 20260904073043 | 58 | 169 | 13.0 | 0.0 | 0.00 | 0.00 | 0.00 | 37 | 999.8 |
| 20260904072552 | 58 | 188 | 13.0 | 0.0 | 0.00 | 0.00 | 0.00 | 37 | 999.9 |
| 20260904072049 | 58 | 157 | 13.0 | 0.0 | 0.00 | 0.00 | 0.00 | 37 | 1000.0 |
| 20260904071607 | 58 | 174 | 12.0 | 0.0 | 0.00 | 0.00 | 0.00 | 37 | 1000.0 |
| 20260904071055 | 59 | 171 | 12.0 | 0.0 | 0.00 | 0.00 | 0.00 | 36 | 1000.2 |
| 20260904070559 | 59 | 192 | 12.0 | 0.0 | 0.00 | 0.00 | 0.00 | 37 | 1000.3 |
| 20260904070055 | 59 | 184 | 13.0 | 0.0 | 0.00 | 0.00 | 0.00 | 37 | 1000.4 |
| 20260904065559 | 59 | 137 | 13.0 | 0.0 | 0.00 | 0.00 | 0.00 | 37 | 1000.5 |
| 20260904065056 | 59 | 171 | 14.0 | 0.0 | 0.00 | 0.00 | 0.00 | 36 | 1000.5 |
| 20260904064607 | 59 | 152 | 15.0 | 0.0 | 0.00 | 0.00 | 0.00 | 36 | 1000.6 |
| 20260904064058 | 60 | 182 | 15.0 | 0.0 | 0.00 | 0.00 | 0.00 | 36 | 1000.6 |
| 20260904063505 | 60 | 168 | 15.0 | 0.0 | 0.00 | 0.00 | 0.00 | 36 | 1000.6 |
| 20260904063101 | 60 | 165 | 14.0 | 0.0 | 0.00 | 0.00 | 0.00 | 35 | 1000.7 |
| 20260904062602 | 60 | 175 | 12.0 | 0.0 | 0.00 | 0.00 | 0.00 | 35 | 1000.7 |
| 20260904062103 | 60 | 178 | 9.0 | 0.0 | 0.00 | 0.00 | 0.00 | 36 | 1000.9 |
| 20260904061602 | 59 | 132 | 8.0 | 0.0 | 0.00 | 0.00 | 0.00 | 37 | 1001.1 |
| 20260904061107 | 58 | 162 | 6.0 | 0.0 | 0.00 | 0.00 | 0.00 | 38 | 1001.2 |
| 20260904060603 | 57 | 171 | 3.0 | 0.0 | 0.00 | 0.00 | 0.00 | 40 | 1001.2 |
| 20260904055601 | 57 | 188 | 1.0 | 0.0 | 0.00 | 0.00 | 0.00 | 40 | 1001.3 |
| 20260904055105 | 57 | 188 | 2.0 | 0.0 | 0.00 | 0.00 | 0.00 | 39 | 1001.3 |
| 20260904054557 | 57 | 188 | 3.0 | 0.0 | 0.00 | 0.00 | 0.00 | 39 | 1001.5 |
| 20260904054057 | 57 | 188 | 4.0 | 0.0 | 0.00 | 0.00 | 0.00 | 40 | 1001.5 |
| 20260904053508 | 57 | 171 | 5.0 | 0.0 | 0.00 | 0.00 | 0.00 | 40 | 1001.5 |
| 20260904053105 | 57 | 175 | 4.0 | 0.0 | 0.00 | 0.00 | 0.00 | 40 | 1001.5 |
| 20260904052609 | 57 | 185 | 4.0 | 0.0 | 0.00 | 0.00 | 0.00 | 39 | 1001.6 |
| 20260904052101 | 57 | 185 | 5.0 | 0.0 | 0.00 | 0.00 | 0.00 | 39 | 1001.6 |
| 20260904051507 | 57 | 175 | 7.0 | 0.0 | 0.00 | 0.00 | 0.00 | 39 | 1001.5 |
| 20260904051006 | 57 | 176 | 7.0 | 0.0 | 0.00 | 0.00 | 0.00 | 39 | 1001.5 |
| 20260904050503 | 57 | 163 | 7.0 | 0.0 | 0.00 | 0.00 | 0.00 | 40 | 1001.5 |
| 20260904050008 | 57 | 190 | 8.0 | 0.0 | 0.00 | 0.00 | 0.00 | 40 | 1001.5 |
| 20260904045506 | 57 | 174 | 9.0 | 0.0 | 0.00 | 0.00 | 0.00 | 40 | 1001.4 |
| 20260904045007 | 57 | 171 | 8.0 | 0.0 | 0.00 | 0.00 | 0.00 | 40 | 1001.5 |
| 20260904044510 | 57 | 179 | 7.0 | 0.0 | 0.00 | 0.00 | 0.00 | 41 | 1001.5 |
| 20260904044008 | 56 | 204 | 6.0 | 0.0 | 0.00 | 0.00 | 0.00 | 41 | 1001.7 |
| 20260904043501 | 56 | 193 | 6.0 | 0.0 | 0.00 | 0.00 | 0.00 | 42 | 1001.9 |
| 20260904043109 | 56 | 202 | 6.0 | 0.0 | 0.00 | 0.00 | 0.00 | 42 | 1001.9 |
| 20260904042601 | 56 | 194 | 6.0 | 0.0 | 0.00 | 0.00 | 0.00 | 43 | 1001.9 |
| 20260904042057 | 56 | 189 | 6.0 | 0.0 | 0.00 | 0.00 | 0.00 | 44 | 1001.9 |
| 20260904041604 | 56 | 194 | 6.0 | 0.0 | 0.00 | 0.00 | 0.00 | 44 | 1001.9 |
| 20260904041104 | 56 | 203 | 6.0 | 0.0 | 0.00 | 0.00 | 0.00 | 45 | 1001.9 |
| 20260904040502 | 56 | 202 | 7.0 | 0.0 | 0.00 | 0.00 | 0.00 | 44 | 1001.9 |
| 20260904035609 | 57 | 212 | 7.0 | 0.0 | 0.00 | 0.00 | 0.00 | 41 | 1001.8 |
| 20260904035059 | 58 | 180 | 8.0 | 0.0 | 0.00 | 0.00 | 0.00 | 39 | 1001.8 |
| 20260904034606 | 58 | 180 | 10.0 | 0.0 | 0.00 | 0.00 | 0.00 | 39 | 1001.7 |
| 20260904034102 | 59 | 164 | 10.0 | 0.0 | 0.00 | 0.00 | 0.00 | 39 | 1001.9 |
| 20260904033610 | 59 | 165 | 10.0 | 0.0 | 0.00 | 0.00 | 0.00 | 39 | 1002.0 |
| 20260904033050 | 59 | 173 | 9.0 | 0.0 | 0.00 | 0.00 | 0.00 | 38 | 1002.3 |
| 20260904032555 | 60 | 175 | 8.0 | 0.0 | 0.00 | 0.00 | 0.00 | 38 | 1002.6 |
| 20260904032056 | 60 | 167 | 7.0 | 0.0 | 0.00 | 0.00 | 0.00 | 37 | 1002.7 |
| 20260904031601 | 60 | 171 | 7.0 | 0.0 | 0.00 | 0.00 | 0.00 | 37 | 1002.8 |
| 20260904031106 | 61 | 186 | 7.0 | 0.0 | 0.00 | 0.00 | 0.00 | 37 | 1002.7 |
| 20260904030557 | 61 | 180 | 8.0 | 0.0 | 0.00 | 0.00 | 0.00 | 36 | 1002.7 |
| 20260904030055 | 61 | 152 | 9.0 | 0.0 | 0.00 | 0.00 | 0.00 | 36 | 1002.7 |
| 20260904025502 | 62 | 173 | 9.0 | 0.0 | 0.00 | 0.00 | 0.00 | 35 | 1002.8 |
| 20260904025105 | 62 | 169 | 9.0 | 0.0 | 0.00 | 0.00 | 0.00 | 35 | 1002.7 |
| 20260904024602 | 62 | 171 | 8.0 | 0.0 | 0.00 | 0.00 | 0.00 | 35 | 1002.7 |
| 20260904024052 | 62 | 163 | 7.0 | 0.0 | 0.00 | 0.00 | 0.00 | 34 | 1002.7 |
| 20260904023600 | 62 | 171 | 6.0 | 0.0 | 0.00 | 0.00 | 0.00 | 34 | 1002.7 |
| 20260904023045 | 62 | 169 | 6.0 | 0.0 | 0.00 | 0.00 | 0.00 | 34 | 1002.7 |
| 20260904022543 | 63 | 146 | 7.0 | 0.0 | 0.00 | 0.00 | 0.00 | 33 | 1002.8 |
| 20260904022030 | 63 | 150 | 9.0 | 0.0 | 0.00 | 0.00 | 0.00 | 33 | 1002.8 |
| 20260904021514 | 63 | 148 | 9.0 | 0.0 | 0.00 | 0.00 | 0.00 | 33 | 1002.9 |
| 20260904021017 | 63 | 165 | 8.0 | 0.0 | 0.00 | 0.00 | 0.00 | 33 | 1002.8 |
| 20260904020512 | 63 | 131 | 9.0 | 0.0 | 0.00 | 0.00 | 0.00 | 32 | 1002.8 |
| 20260904020009 | 64 | 147 | 10.0 | 0.0 | 0.00 | 0.00 | 0.00 | 32 | 1002.8 |
| 20260904015601 | 64 | 134 | 11.0 | 0.0 | 0.00 | 0.00 | 0.00 | 32 | 1002.8 |
| 20260904015002 | 64 | 163 | 9.0 | 0.0 | 0.00 | 0.00 | 0.00 | 32 | 1002.7 |
| 20260904014502 | 65 | 149 | 9.0 | 0.0 | 0.00 | 0.00 | 0.00 | 31 | 1002.8 |
| 20260904014009 | 65 | 169 | 9.0 | 0.0 | 0.00 | 0.00 | 0.00 | 31 | 1003.0 |
| 20260904013505 | 65 | 162 | 9.0 | 0.0 | 0.00 | 0.00 | 0.00 | 30 | 1002.9 |
| 20260904013006 | 65 | 127 | 10.0 | 0.0 | 0.00 | 0.00 | 0.00 | 30 | 1003.0 |
| 20260904012507 | 65 | 175 | 10.0 | 0.0 | 0.00 | 0.00 | 0.00 | 30 | 1003.0 |
| 20260904012013 | 66 | 122 | 12.0 | 0.0 | 0.00 | 0.00 | 0.00 | 30 | 1003.0 |
| 20260904011527 | 66 | 150 | 13.0 | 0.0 | 0.00 | 0.00 | 0.00 | 30 | 1003.0 |
| 20260904011012 | 66 | 169 | 12.0 | 0.0 | 0.00 | 0.00 | 0.00 | 29 | 1002.9 |
| 20260904010508 | 66 | 165 | 13.0 | 0.0 | 0.00 | 0.00 | 0.00 | 29 | 1002.9 |
| 20260904010012 | 66 | 180 | 14.0 | 0.0 | 0.00 | 0.00 | 0.00 | 29 | 1002.8 |
| 20260904005606 | 66 | 171 | 13.0 | 0.0 | 0.00 | 0.00 | 0.00 | 29 | 1002.8 |
| 20260904005105 | 66 | 188 | 13.0 | 0.0 | 0.00 | 0.00 | 0.00 | 29 | 1002.9 |
| 20260904004601 | 66 | 189 | 14.0 | 0.0 | 0.00 | 0.00 | 0.00 | 29 | 1002.9 |
| 20260904004056 | 67 | 166 | 15.0 | 0.0 | 0.00 | 0.00 | 0.00 | 29 | 1003.0 |
| 20260904003550 | 67 | 171 | 16.0 | 0.0 | 0.00 | 0.00 | 0.00 | 29 | 1003.1 |
| 20260904003019 | 67 | 175 | 17.0 | 0.0 | 0.00 | 0.00 | 0.00 | 29 | 1003.0 |
| 20260904002513 | 67 | 178 | 18.0 | 0.0 | 0.00 | 0.00 | 0.00 | 28 | 1003.0 |
| 20260904002015 | 68 | 189 | 20.0 | 0.0 | 0.00 | 0.00 | 0.00 | 28 | 1003.1 |
| 20260904001516 | 67 | 180 | 19.0 | 0.0 | 0.00 | 0.00 | 0.00 | 28 | 1003.1 |
| 20260904001015 | 68 | 131 | 17.0 | 0.0 | 0.00 | 0.00 | 0.00 | 29 | 1003.1 |
| 20260904000502 | 69 | 163 | 16.0 | 0.0 | 0.00 | 0.00 | 0.00 | 27 | 1002.9 |
| 20260904000105 | 69 | 171 | 17.0 | 0.0 | 0.00 | 0.00 | 0.00 | 28 | 1002.9 |
| 20260903235556 | 69 | 182 | 17.0 | 0.0 | 0.00 | 0.00 | 0.00 | 27 | 1003.0 |
| 20260903235047 | 70 | 176 | 17.0 | 0.0 | 0.00 | 0.00 | 0.00 | 28 | 1003.0 |
| 20260903234608 | 69 | 172 | 17.0 | 0.0 | 0.00 | 0.00 | 0.00 | 28 | 1002.8 |
| 20260903234051 | 69 | 185 | 18.0 | 0.0 | 0.00 | 0.00 | 0.00 | 28 | 1002.9 |
| 20260903233542 | 69 | 177 | 18.0 | 0.0 | 0.00 | 0.00 | 0.00 | 28 | 1002.9 |
| 20260903233049 | 67 | 227 | 19.0 | 0.0 | 0.00 | 0.00 | 0.00 | 29 | 1002.9 |
| 20260903232540 | 67 | 160 | 20.0 | 0.0 | 0.00 | 0.00 | 0.00 | 29 | 1002.9 |
| 20260903232044 | 68 | 198 | 19.0 | 0.0 | 0.00 | 0.00 | 0.00 | 29 | 1002.9 |
| 20260903231541 | 67 | 177 | 17.0 | 0.0 | 0.00 | 0.00 | 0.00 | 31 | 1002.9 |
| 20260903231043 | 68 | 172 | 17.0 | 0.0 | 0.00 | 0.00 | 0.00 | 29 | 1002.8 |
| 20260903230555 | 68 | 170 | 17.0 | 0.0 | 0.00 | 0.00 | 0.00 | 30 | 1003.0 |
| 20260903230057 | 66 | 173 | 15.0 | 0.0 | 0.00 | 0.00 | 0.00 | 32 | 1002.9 |
| 20260903225532 | 66 | 202 | 17.0 | 0.0 | 0.00 | 0.00 | 0.00 | 32 | 1003.0 |
| 20260903225106 | 66 | 167 | 18.0 | 0.0 | 0.00 | 0.00 | 0.00 | 32 | 1003.0 |
| 20260903224043 | 66 | 175 | 17.0 | 0.0 | 0.00 | 0.00 | 0.00 | 32 | 1003.0 |
| 20260903223548 | 66 | 144 | 16.0 | 0.0 | 0.00 | 0.00 | 0.00 | 32 | 1003.1 |
| 20260903223056 | 66 | 169 | 17.0 | 0.0 | 0.00 | 0.00 | 0.00 | 32 | 1003.2 |
| 20260903222503 | 66 | 200 | 21.0 | 0.0 | 0.00 | 0.00 | 0.00 | 32 | 1003.3 |
| 20260903222024 | 68 | 205 | 21.0 | 0.0 | 0.00 | 0.00 | 0.00 | 30 | 1003.3 |
| 20260903221540 | 69 | 171 | 20.0 | 0.0 | 0.00 | 0.00 | 0.00 | 30 | 1003.3 |
| 20260903221056 | 68 | 201 | 20.0 | 0.0 | 0.00 | 0.00 | 0.00 | 31 | 1003.2 |
| 20260903220512 | 67 | 196 | 21.0 | 0.0 | 0.00 | 0.00 | 0.00 | 32 | 1003.1 |
| 20260903220051 | 66 | 198 | 21.0 | 0.0 | 0.00 | 0.00 | 0.00 | 32 | 1003.1 |
| 20260903215540 | 67 | 186 | 21.0 | 0.0 | 0.00 | 0.00 | 0.00 | 32 | 1003.0 |
| 20260903215044 | 67 | 193 | 21.0 | 0.0 | 0.00 | 0.00 | 0.00 | 32 | 1003.0 |
| 20260903214554 | 68 | 129 | 20.0 | 0.0 | 0.00 | 0.00 | 0.00 | 31 | 1002.8 |
| 20260903214007 | 67 | 157 | 19.0 | 0.0 | 0.00 | 0.00 | 0.00 | 31 | 1002.9 |
| 20260903213521 | 68 | 151 | 21.0 | 0.0 | 0.00 | 0.00 | 0.00 | 32 | 1002.9 |
| 20260903213043 | 69 | 171 | 21.0 | 0.0 | 0.00 | 0.00 | 0.00 | 30 | 1002.9 |
| 20260903212554 | 69 | 200 | 22.0 | 0.0 | 0.00 | 0.00 | 0.00 | 31 | 1002.9 |
| 20260903212006 | 69 | 155 | 21.0 | 0.0 | 0.00 | 0.00 | 0.00 | 31 | 1003.0 |
| 20260903211507 | 69 | 130 | 22.0 | 0.0 | 0.00 | 0.00 | 0.00 | 30 | 1003.1 |
| 20260903211026 | 69 | 171 | 22.0 | 0.0 | 0.00 | 0.00 | 0.00 | 31 | 1003.0 |
| 20260903210547 | 69 | 161 | 20.0 | 0.0 | 0.00 | 0.00 | 0.00 | 31 | 1003.1 |
| 20260903210057 | 69 | 198 | 19.0 | 0.0 | 0.00 | 0.00 | 0.00 | 30 | 1003.0 |
| 20260903205548 | 69 | 191 | 20.0 | 0.0 | 0.00 | 0.00 | 0.00 | 31 | 1003.0 |
| 20260903205100 | 69 | 130 | 20.0 | 0.0 | 0.00 | 0.00 | 0.00 | 31 | 1003.2 |
| 20260903204603 | 69 | 163 | 20.0 | 0.0 | 0.00 | 0.00 | 0.00 | 31 | 1003.2 |
| 20260903204058 | 69 | 146 | 20.0 | 0.0 | 0.00 | 0.00 | 0.00 | 32 | 1003.4 |
| 20260903203543 | 69 | 200 | 21.0 | 0.0 | 0.00 | 0.00 | 0.00 | 31 | 1003.2 |
| 20260903203022 | 68 | 186 | 19.0 | 0.0 | 0.00 | 0.00 | 0.00 | 32 | 1003.5 |
| 20260903202512 | 69 | 174 | 18.0 | 0.0 | 0.00 | 0.00 | 0.00 | 31 | 1003.5 |
| 20260903202053 | 68 | 196 | 19.0 | 0.0 | 0.00 | 0.00 | 0.00 | 32 | 1003.5 |
| 20260903201601 | 68 | 184 | 19.0 | 0.0 | 0.00 | 0.00 | 0.00 | 33 | 1003.6 |